Waarnemingen

Advertentie
Mijn weer
San Sebastian/Fuenterrabia, Spanje (8029): temperatuur & dauwpunt: 12.11.2017 00:00:00 - 18.11.2017 00:00:00 (CET)San Sebastian/Fuenterrabia, Spanje (8029): windsnelheid: 12.11.2017 00:00:00 - 18.11.2017 00:00:00 (CET)San Sebastian/Fuenterrabia, Spanje (8029): windrichting: 12.11.2017 00:00:00 - 18.11.2017 00:00:00 (CET)San Sebastian/Fuenterrabia, Spanje (8029): luchtdruk: 12.11.2017 00:00:00 - 18.11.2017 00:00:00 (CET)San Sebastian/Fuenterrabia, Spanje (8029): zicht: 12.11.2017 00:00:00 - 18.11.2017 00:00:00 (CET)
Datum & Tijd tt [°C] td [°C] ff [km/u] ff [kn] dd ppp [hPa] vv [km]
18.11.2017 00:00:00 - - - - - - -
17.11.2017 23:00:00 8,0 7,0 4 2 - - 7
17.11.2017 22:00:00 8,0 7,0 5 3 ZZW - 9
17.11.2017 21:00:00 9,0 8,0 4 2 ZZW - 10
17.11.2017 20:00:00 9,0 9,0 4 2 Z - 10
17.11.2017 19:00:00 11,4 9,8 2 1 - 1024,0 10
17.11.2017 18:00:00 12,0 10,0 2 1 WZW - 10
17.11.2017 17:00:00 15,0 10,0 4 2 - - 10
17.11.2017 16:00:00 16,0 10,7 5 3 WNW 1023,3 10
17.11.2017 15:00:00 15,0 10,0 11 6 WNW - 10
17.11.2017 14:00:00 16,0 10,0 4 2 - - 10
17.11.2017 13:00:00 15,8 9,2 2 1 - 1024,1 10
17.11.2017 12:00:00 14,0 8,0 2 1 - - 10
17.11.2017 11:00:00 11,0 6,0 4 2 - - 10
17.11.2017 10:00:00 8,4 5,7 4 2 - 1024,9 10
17.11.2017 09:00:00 7,0 4,0 4 2 - - 10
17.11.2017 08:00:00 6,0 4,0 5 3 Z - 10
17.11.2017 07:00:00 5,0 4,0 5 3 ZZO 1023,9 10
17.11.2017 06:00:00 5,0 4,0 5 3 Z - 10
17.11.2017 05:00:00 4,0 3,0 5 3 ZZW - 10
17.11.2017 04:00:00 6,0 4,0 5 3 Z - 10
17.11.2017 03:00:00 6,0 5,0 5 3 Z - 10
17.11.2017 02:00:00 6,0 5,0 5 3 Z - 10
17.11.2017 01:00:00 6,0 5,0 5 3 Z - 10
17.11.2017 00:00:00 6,0 5,0 4 2 - - 10
16.11.2017 23:00:00 6,0 5,0 4 2 - - 10
16.11.2017 22:00:00 7,0 5,0 4 2 - - 10
16.11.2017 21:00:00 7,0 6,0 4 2 - - 10
16.11.2017 20:00:00 8,0 7,0 2 1 - - 10
16.11.2017 19:00:00 9,6 7,9 2 1 - 1023,6 10
16.11.2017 18:00:00 11,0 8,0 0 0 N - 10
16.11.2017 17:00:00 12,0 7,0 4 2 NO - 10
16.11.2017 16:00:00 14,0 8,4 5 3 N 1022,5 10
16.11.2017 15:00:00 14,0 8,0 5 3 N - 10
16.11.2017 14:00:00 14,0 8,0 5 3 NO - 10
16.11.2017 13:00:00 13,6 6,0 2 1 O 1022,6 10
16.11.2017 12:00:00 12,0 4,0 2 1 - - 10
16.11.2017 11:00:00 9,0 5,0 2 1 - - 10
16.11.2017 10:00:00 6,0 3,2 4 2 ZZO 1022,7 10
16.11.2017 09:00:00 5,0 3,0 2 1 - - 10
16.11.2017 08:00:00 4,0 2,0 4 2 - - 10
16.11.2017 07:00:00 2,8 2,2 2 1 - 1021,1 10
16.11.2017 06:00:00 4,0 3,0 2 1 - - 10
16.11.2017 05:00:00 4,0 3,0 5 3 Z - 10
16.11.2017 04:00:00 5,0 4,0 4 2 - - 10
16.11.2017 03:00:00 4,0 3,0 4 2 - - 9
16.11.2017 02:00:00 5,0 4,0 4 2 - - 10
16.11.2017 01:00:00 5,0 4,0 8 4 Z - 7
16.11.2017 00:00:00 5,0 4,0 2 1 - - 9
15.11.2017 23:00:00 5,0 4,0 4 2 ZZW - 8
15.11.2017 22:00:00 5,0 4,0 2 1 - - 10
15.11.2017 21:00:00 6,0 5,0 2 1 Z - 10
15.11.2017 20:00:00 7,0 6,0 2 1 - - 10
15.11.2017 19:00:00 8,4 6,2 2 1 - 1021,5 10
15.11.2017 18:00:00 9,0 6,0 4 2 Z - 10
15.11.2017 17:00:00 11,0 6,0 4 2 NO - 10
15.11.2017 16:00:00 11,9 5,1 8 4 NNO 1020,8 10
15.11.2017 15:00:00 12,0 5,0 4 2 - - 10
15.11.2017 14:00:00 11,0 5,0 5 3 NNO - 10
15.11.2017 13:00:00 10,1 4,5 5 3 NNO 1022,5 10
15.11.2017 12:00:00 10,0 4,0 0 0 N - 10
15.11.2017 11:00:00 8,0 4,0 2 1 - - 10
15.11.2017 10:00:00 5,1 2,3 4 2 - 1023,9 10
15.11.2017 09:00:00 4,0 2,0 4 2 - - 10
15.11.2017 08:00:00 3,0 2,0 4 2 - - 10
15.11.2017 07:00:00 3,2 2,2 5 3 Z 1023,7 10
15.11.2017 06:00:00 3,0 2,0 5 3 ZZO - 10
15.11.2017 05:00:00 3,0 2,0 5 3 Z - 10
15.11.2017 04:00:00 4,0 2,0 4 2 - - 10
15.11.2017 03:00:00 3,0 2,0 2 1 - - 10
15.11.2017 02:00:00 4,0 3,0 2 1 - - 10
15.11.2017 01:00:00 4,0 3,0 4 2 - - 10
15.11.2017 00:00:00 5,0 3,0 2 1 - - 10
14.11.2017 23:00:00 5,0 3,0 2 1 - - 10
14.11.2017 22:00:00 5,0 3,0 2 1 - - 10
14.11.2017 21:00:00 6,0 4,0 2 1 - - 10
14.11.2017 20:00:00 6,0 4,0 5 3 ZZW - 10
14.11.2017 19:00:00 7,6 4,0 4 2 - 1026,1 10
14.11.2017 18:00:00 10,0 3,0 5 3 O - 10
14.11.2017 17:00:00 11,0 2,0 8 4 ONO - 10
14.11.2017 16:00:00 11,3 1,5 11 6 NO 1026,0 10
14.11.2017 15:00:00 11,0 4,0 9 5 NNO - 10
14.11.2017 14:00:00 11,0 3,0 13 7 NO - 10
14.11.2017 13:00:00 10,9 3,5 8 4 N 1027,5 10
14.11.2017 12:00:00 10,0 3,0 8 4 ONO - 10
14.11.2017 11:00:00 9,0 3,0 2 1 - - 10
14.11.2017 10:00:00 6,1 3,3 0 0 N 1028,4 10
14.11.2017 09:00:00 4,0 3,0 4 2 - - 10
14.11.2017 08:00:00 3,0 2,0 4 2 Z - 10
14.11.2017 07:00:00 3,1 2,5 4 2 ZZW 1027,2 10
14.11.2017 06:00:00 4,0 3,0 2 1 - - 10
14.11.2017 05:00:00 4,0 3,0 2 1 - - 10
14.11.2017 04:00:00 4,0 3,0 2 1 - - 10
14.11.2017 03:00:00 5,0 3,0 2 1 - - 10
14.11.2017 02:00:00 5,0 3,0 2 1 W - 10
14.11.2017 01:00:00 6,0 3,0 2 1 - - 10
14.11.2017 00:00:00 6,0 4,0 0 0 N - 10
13.11.2017 23:00:00 7,0 4,0 0 0 N - 10
13.11.2017 22:00:00 7,0 4,0 0 0 N - 10
13.11.2017 21:00:00 8,0 4,0 0 0 N - 10
13.11.2017 20:00:00 9,0 3,0 11 6 O - 10
13.11.2017 19:00:00 11,0 3,1 15 8 ONO 1026,6 10
13.11.2017 18:00:00 11,0 3,0 15 8 NNO - 10
13.11.2017 17:00:00 12,0 3,0 15 8 NNO - 10
13.11.2017 16:00:00 11,2 4,4 13 7 NNO 1025,9 10
13.11.2017 15:00:00 11,0 4,0 18 10 NNO - 10
13.11.2017 14:00:00 11,0 4,0 15 8 NNO - 10
13.11.2017 13:00:00 10,6 3,6 18 10 NO 1026,6 10
13.11.2017 12:00:00 11,0 3,0 11 6 ONO - 10
13.11.2017 11:00:00 9,0 4,0 9 5 O - 10
13.11.2017 10:00:00 8,0 4,2 5 3 O 1026,6 10
13.11.2017 09:00:00 8,0 4,0 5 3 NO - 10
13.11.2017 08:00:00 8,0 5,0 11 6 ONO - 10
13.11.2017 07:00:00 8,6 5,5 9 5 O 1024,6 10
13.11.2017 06:00:00 9,0 6,0 5 3 O - 10
13.11.2017 05:00:00 9,0 6,0 11 6 O - 9
13.11.2017 04:00:00 9,0 7,0 24 13 O - 10
13.11.2017 03:00:00 12,0 9,0 18 10 NNO - 9
13.11.2017 02:00:00 13,0 9,0 24 13 NNO - 10
13.11.2017 01:00:00 14,0 7,0 16 9 NNW - 10
13.11.2017 00:00:00 14,0 6,0 16 9 N - 10
12.11.2017 23:00:00 14,0 7,0 18 10 NNW - 10
12.11.2017 22:00:00 15,0 10,0 24 13 NNW - 10
12.11.2017 21:00:00 14,0 13,0 18 10 NW - 10
12.11.2017 20:00:00 15,0 13,0 15 8 - - 10
12.11.2017 19:00:00 15,0 14,7 28 15 W 1020,1 9
12.11.2017 18:00:00 15,0 13,0 16 9 W - 9
12.11.2017 17:00:00 14,0 13,0 24 13 WZW - 10
12.11.2017 16:00:00 15,4 11,2 21 11 WZW 1019,9 10
12.11.2017 15:00:00 15,0 12,0 21 11 WZW - 10
12.11.2017 14:00:00 15,0 11,0 22 12 W - 10
12.11.2017 13:00:00 14,8 11,2 21 11 WZW 1021,8 10
12.11.2017 12:00:00 14,0 12,0 13 7 WZW - 10
12.11.2017 11:00:00 13,0 12,0 13 7 ZW - 10
12.11.2017 10:00:00 12,8 11,7 13 7 ZW 1023,4 10
12.11.2017 09:00:00 13,0 12,0 13 7 ZW - 10
12.11.2017 08:00:00 13,0 12,0 9 5 ZW - 7
12.11.2017 07:00:00 12,2 11,6 11 6 ZW 1023,5 7
12.11.2017 06:00:00 13,0 11,0 15 8 ZW - 8
12.11.2017 05:00:00 13,0 12,0 11 6 ZW - 6
12.11.2017 04:00:00 13,0 12,0 15 8 ZW - 3,1
12.11.2017 03:00:00 12,0 12,0 8 4 - - 1,9
12.11.2017 02:00:00 12,0 12,0 11 6 ZW - 5
12.11.2017 01:00:00 13,0 11,0 13 7 ZW - 7
12.11.2017 00:00:00 13,0 11,0 13 7 ZW - 3,7

tt = temperatuur
td = dauwpunt
ff = windsnelheid
dd = windrichting
ppp = luchtdruk
vv = zicht

Weerstations in de omgeving